Tracking 28125 objects as of 4-Oct-2023
HD Live streaming from Space Station
objects crossing your sky now

THORAD AGENA D DEB

Track THORAD AGENA D DEB now!
10-day predictions


NORAD ID: 5129
Int'l Code: 1970-025JN
Perigee: 925.1 km
Apogee: 1,219.6 km
Inclination: 99.3 °
Period: 106.5 minutes
Semi major axis: 7443 km
RCS: 0.0305 m2 (small)
Launch date: April 8, 1970
Source: United States (US)
Launch site: AIR FORCE WESTERN TEST RANGE (AFWTR)

Note: This is SATELLITE DEBRIS
Your satellite tracking list
Your tracking list is empty




NASA's NSSDC Master Catalog

Two Line Element Set (TLE):
1 05129U 70025JN  23276.60248927  .00001995  00000-0  27435-2 0  9996
2 05129  99.3017  47.1306 0197839  62.5641   1.4699 13.51921681599919
Source of the keplerian elements: AFSPC